Showing default

KINEIS-5C, 62081

Orbit data source: Space-Track

KINEIS-5C, 62081 is a French payload satellite in SSO that was launched on Mon, 25 Nov 2024 UTC via an ELECTRON launch vehicle from the Rocket Lab Launch Complex (RLLC). Payloads include a variety of satellites, spacecraft, and rockets equipped with specific instruments for various scientific and technological missions. These include communications satellites like Starlink; space stations such as the ISS; scientific satellites like the Hubble; Earth observation satellites from companies like Planet Labs, Umbra, and HawkEye 360; GPS; miniature CubeSats for education and research; and military/defense satellites.

Loading next visibility...
KINEIS-5C details
Identifier
62081, 2024-219A
Orbit
SSO
Last TLE update8 hours ago
Origin
Flag of FRKINEIS (FR)
ManufacturerKINEIS
MissionOperational spacecraft
Bus & MotorCUBESAT 16U, Unknown motor
Mass28 kg wet, 28 kg dry
Launch date (UTC)
2024-11-25 (1 month ago)
Launch vehicle
ELECTRON
Launch site
Rocket Lab Launch Complex (RLLC)
Object type
Payload
Rocket body
Debris
Shape & HBRUnknown
Radar Cross SectionMedium (>0.1 m² and <1 m²)

Expand to show TLE details & history

TLE from 8 hours ago
0 KINEIS-5C
1 62081U 24219A   24361.08334323  .00005668  00000-0  80850-3 0  9996
2 62081  97.9492 159.5873 0000936 319.9444  40.1697 14.77129437  4555
Epoch: 2024-12-26T02:00Z
Definitive object data (Epoch: 2024-12-26T02:00:00.855Z)
Latitude-0.00001°
Longitude34.51591°
Altitude640.914 km
Speed7.538 km/s
True Right ascension10h 38m 20s
True Declination0° 00' 00"
Sunlit
Object was in daylight at TLE epoch
Visualization TLE readout
Latitude18.7765°
Longitude32.14686°
Altitude640.56 km
Speed7.54 km/s
Apparent Right ascension12h 35m 16s
Apparent Declination-39° 27' 18"
Sunlit
Object is in full shadow
Visualization observer readout
Local Sidereal Time09:33:59
Azimuth146.698° SSE
Elevation0.495°
Doppler factor1
Orbital elements
Apogee altitude636.103 km
Perigee altitude634.79 km
Semi-major axis7,013.584 km
Eccentricity0.0000936
Inclination97.9492°
RAAN159.5873°
Arg. of periapsis319.9444°
True anomaly40.17662°
Mean anomaly40.1697°
Eccentric anomaly40.17316°
Mean motion3.69516 °/min
BSTAR0.0008085
Orbital period97.42 mins
Loading maneuver chart data...
Loading historical data...
Loading historical data...
Loading historical data...
Loading historical data...
Loading historical data...
Loading historical data...
Loading historical data...

KINEIS-5C Visibility forecast

Observer location: undefined°, undefined

Span
Click to sort rows by Start time (UTC) header in descending order
Start Az.
Max El. time (UTC)
Max El. Az.
Max El.
End time (UTC)
End Az.
7 mins2024-12-26 10:15:50.866Z134.837° SE2024-12-26 10:18:50.866Z80.725° E31.814°2024-12-26 10:22:50.866Z5.253° NNE
4 mins2024-12-26 11:53:50.866Z236.681° WSW2024-12-26 11:55:50.866Z269.122° W17.102°2024-12-26 11:57:50.866Z300.336° NW
7 mins2024-12-26 23:42:50.866Z12.306° NNE2024-12-26 23:45:50.866Z341.715° N44.978°2024-12-26 23:49:50.866Z194.353° SSW
|